Location: Casilda
(33.0440°S, 61.1680°W)
Time: 09:42:13
(UTC-03:00)

ISS - Pass Details

Date: 16 December 2018
Orbit: 401 x 408 km, 51.6° (Epoch: 16 December)

Event Time Altitude Azimuth Distance (km) Brightness Sun altitude
Rises 04:33:54 0° 210° (SSW) 2,362 0.2 -14.1°
Reaches altitude 10° 04:36:52 10° 181° (S) 1,495 -0.4 -13.6°
Maximum altitude 04:38:36 13° 150° (SSE) 1,303 -0.1 -13.3°
Drops below altitude 10° 04:40:20 10° 118° (ESE) 1,490 0.4 -13.0°
Sets 04:43:17 0° 90° (E) 2,345 0.9 -12.5°
